Weather History for KBUF - April, 2013

Change the Weather History Date:

Sunday, April 7, 2013

  Actual Average Record
Temperature  
Mean Temperature 53 °F 42 °F  
Max Temperature 64 °F 51 °F 79 °F (1921)
Min Temperature 41 °F 34 °F 12 °F (1982)
Degree Days  
Heating Degree Days 12 23  
Month to date heating degree days 196 167  
Since 1 July heating degree days 5502 5872  
Cooling Degree Days 0 0  
Month to date cooling degree days 0 0  
Year to date cooling degree days 0 0  
Growing Degree Days 4 (Base 50)    
Moisture  
Dew Point 32 °F    
Average Humidity 51    
Maximum Humidity 76    
Minimum Humidity 26    
Precipitation  
Precipitation T in 0.11 in 1.00 in (1942)
Month to date precipitation 0.01 0.73  
Year to date precipitation 6.62 9.27  
Snow  
Snow 0.00 in 0.20 in 2.90 in (1958)
Month to date snowfall 0.3 1.2  
Since 1 July snowfall 58.8 92.9  
Snow Depth 0.00 in    
Sea Level Pressure  
Sea Level Pressure 29.84 in    
Wind  
Wind Speed 19 mph (SW)    
Max Wind Speed 36 mph    
Max Gust Speed 51 mph    
Visibility 10 miles    
Events      
T = Trace of Precipitation, MM = Missing Value Source: NWS Daily Summary

Daily Weather History Graph

Daily Weather History Graph

Search for Another Location

Airport or City:

Trip Planner

Search our weather history database for the weather conditions in past years. The results will help you decide how hot, cold, wet, or windy it might be!

Date:

Astronomy

Apr. 07, 2013 Rise Set
Actual Time 6:46 AM EDT 7:48 PM EDT
Civil Twilight 6:17 AM EDT 8:17 PM EDT
Nautical Twilight 5:42 AM EDT 8:52 PM EDT
Astronomical Twilight 5:06 AM EDT 9:28 PM EDT
Moon 5:06 AM EDT (4/7) 5:15 PM EDT (4/7)
Length of Visible Light 14h 00m
Length of Day
13h 02m
Waning Crescent, 8% of the Moon is Illuminated
Apr 7
Waning Crescent
Apr 10
New
Apr 18
First Quarter
Apr 25
Full
May 2
Last Quarter

Hourly Weather History & Observations

Time (EDT) Temp. Windchill Dew Point Humidity Pressure Visibility Wind Dir Wind Speed Gust Speed Precip Events Conditions
12:54 AM 48.9 °F - 17.1 °F 28% 29.96 in 10.0 mi SSE 10.4 mph - N/A   Overcast
1:54 AM 51.1 °F - 17.1 °F 26% 29.90 in 10.0 mi SSE 13.8 mph 23.0 mph N/A   Overcast
2:54 AM 51.1 °F - 18.0 °F 27% 29.88 in 10.0 mi SSE 15.0 mph 23.0 mph N/A   Overcast
3:54 AM 53.1 °F - 21.0 °F 29% 29.83 in 10.0 mi South 21.9 mph 27.6 mph N/A   Overcast
4:54 AM 54.0 °F - 24.1 °F 31% 29.81 in 10.0 mi South 25.3 mph 39.1 mph N/A   Overcast
5:54 AM 54.0 °F - 25.0 °F 33% 29.79 in 10.0 mi South 20.7 mph 29.9 mph N/A   Overcast
6:54 AM 55.9 °F - 27.0 °F 33% 29.77 in 10.0 mi South 20.7 mph 35.7 mph N/A   Mostly Cloudy
7:54 AM 55.9 °F - 28.9 °F 36% 29.75 in 10.0 mi South 23.0 mph 35.7 mph N/A   Mostly Cloudy
8:54 AM 59.0 °F - 30.9 °F 35% 29.73 in 10.0 mi SSW 24.2 mph 40.3 mph N/A   Mostly Cloudy
9:54 AM 60.1 °F - 32.0 °F 35% 29.72 in 10.0 mi SSW 26.5 mph 35.7 mph N/A   Overcast
10:54 AM 61.0 °F - 34.0 °F 36% 29.72 in 10.0 mi SSW 28.8 mph 40.3 mph 0.00 in   Overcast
11:54 AM 64.0 °F - 37.0 °F 37% 29.72 in 10.0 mi SW 32.2 mph 42.6 mph N/A   Mostly Cloudy
12:54 PM 61.0 °F - 41.0 °F 48% 29.73 in 10.0 mi WSW 29.9 mph 43.7 mph N/A   Mostly Cloudy
1:54 PM 59.0 °F - 42.1 °F 53% 29.73 in 10.0 mi WSW 24.2 mph 39.1 mph N/A   Scattered Clouds
2:54 PM 55.0 °F - 41.0 °F 59% 29.77 in 10.0 mi SW 21.9 mph 28.8 mph N/A   Scattered Clouds
3:54 PM 53.1 °F - 41.0 °F 64% 29.80 in 10.0 mi SW 23.0 mph 32.2 mph N/A   Scattered Clouds
4:54 PM 53.1 °F - 41.0 °F 64% 29.84 in 10.0 mi West 19.6 mph 32.2 mph N/A   Scattered Clouds
5:54 PM 50.0 °F - 39.0 °F 66% 29.88 in 10.0 mi WSW 17.3 mph 25.3 mph N/A   Scattered Clouds
6:54 PM 48.0 °F - 37.9 °F 68% 29.92 in 10.0 mi WSW 12.7 mph - N/A   Scattered Clouds
7:54 PM 45.0 °F 42.6 °F 37.9 °F 76% 29.96 in 10.0 mi WSW 4.6 mph - N/A   Scattered Clouds
8:54 PM 46.0 °F 41.4 °F 34.0 °F 63% 29.99 in 10.0 mi WNW 9.2 mph - N/A   Scattered Clouds
9:54 PM 45.0 °F 39.3 °F 34.0 °F 65% 30.02 in 10.0 mi NW 11.5 mph - N/A   Mostly Cloudy
10:54 PM 43.0 °F 37.7 °F 33.1 °F 68% 30.03 in 10.0 mi NW 9.2 mph - N/A   Scattered Clouds
11:54 PM 43.0 °F 38.8 °F 32.0 °F 65% 30.05 in 10.0 mi NW 6.9 mph - N/A   Mostly Cloudy